Time,TemperatureF,DewpointF,PressureIn,WindDirection,WindDirectionDegrees,WindSpeedMPH,WindSpeedGustMPH,Humidity,HourlyPrecipIn,Conditions,Clouds,dailyrainin,SoftwareType,DateUTC
2013-02-24 00:07:00,39.0,29.4,29.90,ESE,112,0.0,-999.0,68,-99.99,,,0.00,Acu-Link.com,2013-02-24 06:07:00,
2013-02-24 00:23:00,41.2,29.6,29.89,South,180,0.0,-999.0,63,-99.99,,,0.00,Acu-Link.com,2013-02-24 06:23:00,
2013-02-24 00:38:00,41.5,29.9,29.88,ENE,67,2.2,-999.0,63,-99.99,,,0.00,Acu-Link.com,2013-02-24 06:38:00,
2013-02-24 00:53:00,42.3,29.8,29.88,ESE,112,3.1,-999.0,61,-99.99,,,0.00,Acu-Link.com,2013-02-24 06:53:00,
2013-02-24 01:08:00,42.3,29.8,29.88,ESE,112,2.2,-999.0,61,-99.99,,,0.00,Acu-Link.com,2013-02-24 07:08:00,
2013-02-24 01:24:00,41.2,29.9,29.88,SSW,202,0.0,-999.0,64,-99.99,,,0.00,Acu-Link.com,2013-02-24 07:24:00,
2013-02-24 01:39:00,41.2,29.9,29.88,ENE,67,2.2,-999.0,64,-99.99,,,0.00,Acu-Link.com,2013-02-24 07:39:00,
2013-02-24 01:54:00,40.5,30.0,29.88,SSW,202,0.0,-999.0,66,-99.99,,,0.00,Acu-Link.com,2013-02-24 07:54:00,
2013-02-24 02:09:00,39.7,29.3,29.88,South,180,0.0,-999.0,66,-99.99,,,0.00,Acu-Link.com,2013-02-24 08:09:00,
2013-02-24 02:24:00,39.7,29.3,29.87,ENE,67,0.0,-999.0,66,-99.99,,,0.00,Acu-Link.com,2013-02-24 08:24:00,
2013-02-24 02:40:00,39.4,29.4,29.87,West,270,0.0,-999.0,67,-99.99,,,0.00,Acu-Link.com,2013-02-24 08:40:00,
2013-02-24 02:55:00,39.7,30.1,29.88,SW,225,0.0,-999.0,68,-99.99,,,0.00,Acu-Link.com,2013-02-24 08:55:00,
2013-02-24 03:18:00,39.2,29.9,29.88,West,270,0.0,-999.0,69,-99.99,,,0.00,Acu-Link.com,2013-02-24 09:18:00,
2013-02-24 03:33:00,37.6,29.4,29.87,ESE,112,0.0,-999.0,72,-99.99,,,0.00,Acu-Link.com,2013-02-24 09:33:00,
2013-02-24 03:48:00,37.4,29.2,29.87,ESE,112,0.0,-999.0,72,-99.99,,,0.00,Acu-Link.com,2013-02-24 09:48:00,
2013-02-24 04:03:00,37.8,29.2,29.86,ENE,67,0.0,-999.0,71,-99.99,,,0.00,Acu-Link.com,2013-02-24 10:03:00,
2013-02-24 04:18:00,37.6,29.7,29.86,SSE,157,0.0,-999.0,73,-99.99,,,0.00,Acu-Link.com,2013-02-24 10:18:00,
2013-02-24 04:34:00,37.9,29.4,29.86,West,270,0.0,-999.0,71,-99.99,,,0.00,Acu-Link.com,2013-02-24 10:34:00,
2013-02-24 04:49:00,37.6,29.4,29.87,ESE,112,0.0,-999.0,72,-99.99,,,0.00,Acu-Link.com,2013-02-24 10:49:00,
2013-02-24 05:04:00,38.5,29.6,29.86,SSE,157,1.1,-999.0,70,-99.99,,,0.00,Acu-Link.com,2013-02-24 11:04:00,
2013-02-24 05:19:00,37.2,29.7,29.86,South,180,0.0,-999.0,74,-99.99,,,0.00,Acu-Link.com,2013-02-24 11:19:00,
2013-02-24 05:35:00,36.3,29.8,29.87,NNW,337,0.0,-999.0,77,-99.99,,,0.00,Acu-Link.com,2013-02-24 11:35:00,
2013-02-24 05:50:00,37.4,29.9,29.87,SSW,202,0.0,-999.0,74,-99.99,,,0.00,Acu-Link.com,2013-02-24 11:50:00,
2013-02-24 06:05:00,36.0,29.8,29.87,ESE,112,0.0,-999.0,78,-99.99,,,0.00,Acu-Link.com,2013-02-24 12:05:00,
2013-02-24 06:20:00,36.3,29.5,29.87,SE,135,0.0,-999.0,76,-99.99,,,0.00,Acu-Link.com,2013-02-24 12:20:00,
2013-02-24 06:51:00,34.9,30.0,29.87,West,270,0.0,-999.0,82,-99.99,,,0.00,Acu-Link.com,2013-02-24 12:51:00,
2013-02-24 07:06:00,35.1,30.1,29.86,ENE,67,0.0,-999.0,82,-99.99,,,0.00,Acu-Link.com,2013-02-24 13:06:00,
2013-02-24 07:21:00,35.4,30.2,29.87,SE,135,0.0,-999.0,81,-99.99,,,0.00,Acu-Link.com,2013-02-24 13:21:00,
2013-02-24 07:36:00,38.8,31.6,29.88,East,90,1.1,-999.0,75,-99.99,,,0.00,Acu-Link.com,2013-02-24 13:36:00,
2013-02-24 07:51:00,43.9,32.5,29.88,WSW,247,2.2,-999.0,64,-99.99,,,0.00,Acu-Link.com,2013-02-24 13:51:00,
2013-02-24 08:07:00,44.1,33.1,29.88,ESE,112,2.2,-999.0,65,-99.99,,,0.00,Acu-Link.com,2013-02-24 14:07:00,
2013-02-24 08:22:00,44.8,33.4,29.88,SSE,157,6.3,-999.0,64,-99.99,,,0.00,Acu-Link.com,2013-02-24 14:22:00,
2013-02-24 08:37:00,46.9,35.0,29.90,East,90,6.7,-999.0,63,-99.99,,,0.00,Acu-Link.com,2013-02-24 14:37:00,
2013-02-24 08:52:00,47.8,36.3,29.89,ESE,112,6.3,-999.0,64,-99.99,,,0.00,Acu-Link.com,2013-02-24 14:52:00,
2013-02-24 09:07:00,48.2,36.6,29.89,East,90,8.3,-999.0,64,-99.99,,,0.00,Acu-Link.com,2013-02-24 15:07:00,
2013-02-24 09:23:00,50.2,37.3,29.89,East,90,2.2,-999.0,61,-99.99,,,0.00,Acu-Link.com,2013-02-24 15:23:00,
2013-02-24 09:38:00,53.8,39.4,29.89,East,90,6.7,-999.0,58,-99.99,,,0.00,Acu-Link.com,2013-02-24 15:38:00,
2013-02-24 09:53:00,53.6,39.2,29.88,ESE,112,8.3,-999.0,58,-99.99,,,0.00,Acu-Link.com,2013-02-24 15:53:00,
2013-02-24 10:08:00,54.9,39.9,29.88,ESE,112,5.1,-999.0,57,-99.99,,,0.00,Acu-Link.com,2013-02-24 16:08:00,
2013-02-24 10:24:00,58.3,41.7,29.87,NNE,22,6.3,-999.0,54,-99.99,,,0.00,Acu-Link.com,2013-02-24 16:24:00,
2013-02-24 10:39:00,58.5,41.9,29.87,West,270,5.1,-999.0,54,-99.99,,,0.00,Acu-Link.com,2013-02-24 16:39:00,
2013-02-24 10:54:00,59.4,42.2,29.87,NNE,22,5.8,-999.0,53,-99.99,,,0.00,Acu-Link.com,2013-02-24 16:54:00,
2013-02-24 11:09:00,60.8,43.1,29.86,East,90,6.3,-999.0,52,-99.99,,,0.00,Acu-Link.com,2013-02-24 17:09:00,
2013-02-24 11:24:00,61.7,42.9,29.85,WNW,292,3.8,-999.0,50,-99.99,,,0.00,Acu-Link.com,2013-02-24 17:24:00,
2013-02-24 11:40:00,63.0,43.0,29.84,West,270,4.7,-999.0,48,-99.99,,,0.00,Acu-Link.com,2013-02-24 17:40:00,
2013-02-24 11:55:00,63.1,42.6,29.83,SSE,157,7.4,-999.0,47,-99.99,,,0.00,Acu-Link.com,2013-02-24 17:55:00,
2013-02-24 12:10:00,63.1,43.1,29.82,ESE,112,7.8,-999.0,48,-99.99,,,0.00,Acu-Link.com,2013-02-24 18:10:00,
2013-02-24 12:25:00,64.4,43.2,29.81,East,90,5.8,-999.0,46,-99.99,,,0.00,Acu-Link.com,2013-02-24 18:25:00,
2013-02-24 12:40:00,65.8,42.1,29.80,East,90,4.7,-999.0,42,-99.99,,,0.00,Acu-Link.com,2013-02-24 18:40:00,
2013-02-24 12:56:00,68.7,42.8,29.79,NE,45,6.7,-999.0,39,-99.99,,,0.00,Acu-Link.com,2013-02-24 18:56:00,
2013-02-24 13:11:00,66.6,41.5,29.78,NNE,22,6.3,-999.0,40,-99.99,,,0.00,Acu-Link.com,2013-02-24 19:11:00,
2013-02-24 13:26:00,68.4,41.8,29.75,East,90,6.3,-999.0,38,-99.99,,,0.00,Acu-Link.com,2013-02-24 19:26:00,
2013-02-24 13:41:00,68.2,41.6,29.74,West,270,9.8,-999.0,38,-99.99,,,0.00,Acu-Link.com,2013-02-24 19:41:00,
2013-02-24 13:56:00,68.5,39.8,29.73,ESE,112,8.9,-999.0,35,-99.99,,,0.00,Acu-Link.com,2013-02-24 19:56:00,
2013-02-24 14:12:00,69.4,40.6,29.72,SSW,202,3.8,-999.0,35,-99.99,,,0.00,Acu-Link.com,2013-02-24 20:12:00,
2013-02-24 14:27:00,69.4,39.8,29.71,ENE,67,8.9,-999.0,34,-99.99,,,0.00,Acu-Link.com,2013-02-24 20:27:00,
2013-02-24 14:42:00,70.3,40.6,29.70,West,270,3.1,-999.0,34,-99.99,,,0.00,Acu-Link.com,2013-02-24 20:42:00,
2013-02-24 14:57:00,70.7,40.9,29.71,ESE,112,9.8,-999.0,34,-99.99,,,0.00,Acu-Link.com,2013-02-24 20:57:00,
2013-02-24 15:13:00,70.2,39.7,29.70,ESE,112,4.7,-999.0,33,-99.99,,,0.00,Acu-Link.com,2013-02-24 21:13:00,
2013-02-24 15:28:00,70.9,41.1,29.68,SSE,157,6.3,-999.0,34,-99.99,,,0.00,Acu-Link.com,2013-02-24 21:28:00,
2013-02-24 15:43:00,70.5,40.8,29.67,NE,45,4.3,-999.0,34,-99.99,,,0.00,Acu-Link.com,2013-02-24 21:43:00,
2013-02-24 15:58:00,70.7,41.7,29.67,ESE,112,8.3,-999.0,35,-99.99,,,0.00,Acu-Link.com,2013-02-24 21:58:00,
2013-02-24 16:13:00,70.3,41.4,29.67,ESE,112,7.4,-999.0,35,-99.99,,,0.00,Acu-Link.com,2013-02-24 22:13:00,
2013-02-24 16:29:00,69.6,40.7,29.67,East,90,6.3,-999.0,35,-99.99,,,0.00,Acu-Link.com,2013-02-24 22:29:00,
2013-02-24 16:44:00,70.2,41.2,29.67,South,180,3.8,-999.0,35,-99.99,,,0.00,Acu-Link.com,2013-02-24 22:44:00,
2013-02-24 16:59:00,70.2,41.2,29.67,SSE,157,7.8,-999.0,35,-99.99,,,0.00,Acu-Link.com,2013-02-24 22:59:00,
2013-02-24 18:58:00,64.6,36.3,29.65,SSE,157,3.8,-999.0,35,-99.99,,,0.00,Acu-Link.com,2013-02-25 00:58:00,
2013-02-24 19:13:00,64.2,36.7,29.65,SSE,157,5.8,-999.0,36,-99.99,,,0.00,Acu-Link.com,2013-02-25 01:13:00,
2013-02-24 19:29:00,63.5,36.1,29.65,SE,135,2.2,-999.0,36,-99.99,,,0.00,Acu-Link.com,2013-02-25 01:29:00,
2013-02-24 19:44:00,62.6,36.6,29.65,East,90,2.7,-999.0,38,-99.99,,,0.00,Acu-Link.com,2013-02-25 01:44:00,
2013-02-24 19:59:00,61.9,36.7,29.65,SE,135,3.1,-999.0,39,-99.99,,,0.00,Acu-Link.com,2013-02-25 01:59:00,
2013-02-24 20:14:00,61.5,36.3,29.66,ESE,112,2.2,-999.0,39,-99.99,,,0.00,Acu-Link.com,2013-02-25 02:14:00,
2013-02-24 20:29:00,61.0,36.5,29.65,ESE,112,4.7,-999.0,40,-99.99,,,0.00,Acu-Link.com,2013-02-25 02:29:00,
2013-02-24 20:45:00,60.3,36.5,29.66,North,0,0.0,-999.0,41,-99.99,,,0.00,Acu-Link.com,2013-02-25 02:45:00,
2013-02-24 21:00:00,59.9,37.4,29.66,South,180,2.7,-999.0,43,-99.99,,,0.00,Acu-Link.com,2013-02-25 03:00:00,
2013-02-24 21:15:00,59.4,38.0,29.66,East,90,2.2,-999.0,45,-99.99,,,0.00,Acu-Link.com,2013-02-25 03:15:00,
2013-02-24 21:30:00,59.4,38.6,29.66,SSE,157,4.3,-999.0,46,-99.99,,,0.00,Acu-Link.com,2013-02-25 03:30:00,
2013-02-24 21:46:00,59.4,38.6,29.65,ESE,112,4.3,-999.0,46,-99.99,,,0.00,Acu-Link.com,2013-02-25 03:46:00,
2013-02-24 22:01:00,59.0,38.8,29.65,NNE,22,2.7,-999.0,47,-99.99,,,0.00,Acu-Link.com,2013-02-25 04:01:00,
2013-02-24 22:16:00,58.5,38.8,29.65,South,180,3.8,-999.0,48,-99.99,,,0.00,Acu-Link.com,2013-02-25 04:16:00,
2013-02-24 22:31:00,58.1,39.6,29.64,ESE,112,4.7,-999.0,50,-99.99,,,0.00,Acu-Link.com,2013-02-25 04:31:00,
2013-02-24 22:46:00,57.9,39.4,29.63,ESE,112,4.3,-999.0,50,-99.99,,,0.00,Acu-Link.com,2013-02-25 04:46:00,
2013-02-24 23:02:00,57.2,39.7,29.61,ESE,112,5.1,-999.0,52,-99.99,,,0.00,Acu-Link.com,2013-02-25 05:02:00,
2013-02-24 23:17:00,57.2,40.2,29.59,ENE,67,6.7,-999.0,53,-99.99,,,0.00,Acu-Link.com,2013-02-25 05:17:00,
2013-02-24 23:32:00,56.7,40.2,29.60,West,270,7.4,-999.0,54,-99.99,,,0.00,Acu-Link.com,2013-02-25 05:32:00,
2013-02-24 23:47:00,56.7,40.7,29.57,ENE,67,6.7,-999.0,55,-99.99,,,0.00,Acu-Link.com,2013-02-25 05:47:00,